EHI
0 0 0 0 0 0 0 0 0 0 0 0 0 0 0 0 0 0 0 0 0 0 0 0 0 0 0 0 0 0 0 0 0 0 1 1 2 2 1 1 2 4 5 6
0 0 0 0 0 0 0 0 0 0 0 0 0 0 0 0 0 0 0 0 0 0 0 0 0 0 0 0 0 0 0 0 0 0 1 1 1 1 2 2 3 5 5 4
0 0 0 0 0 0 0 0 0 0 0 0 0 0 0 0 0 0 0 0 0 0 0 0 0 0 0 0 0 0 0 0 0 0 0 0 0 0 2 3 4 5 5 4
0 0 0 0 0 0 0 0 0 0 0 0 0 0 0 0 0 0 0 0 0 0 0 0 0 0 0 0 0 0 0 0 0 0 0 0 0 1 2 3 3 3 4 5
0 0 0 0 0 0 0 0 0 0 0 0 0 0 0 0 0 0 0 0 0 0 0 0 0 0 0 0 0 0 0 0 0 0 0 0 0 1 2 2 2 2 3 4
0 0 0 0 0 0 0 0 0 0 0 0 0 0 0 0 0 0 0 0 0 0 0 0 0 0 0 0 0 0 0 0 0 0 0 0 0 0 1 1 1 1 2 3
0 0 0 0 0 0 0 0 0 0 0 0 0 0 0 0 0 0 0 0 0 0 0 0 0 0 0 0 0 0 0 0 0 0 0 0 0 0 0 0 0 0 1 3
0 0 0 0 0 0 0 0 0 0 0 0 0 0 0 0 0 0 0 0 0 0 0 0 0 0 0 0 0 0 0 0 0 0 0 0 0 0 0 0 0 0 1 3
0 0 0 0 0 0 0 0 0 0 0 0 0 0 0 0 0 0 0 0 0 0 0 0 0 0 0 0 0 0 0 0 0 0 0 0 0 0 0 0 0 0 1 2
0 0 0 0 0 0 0 0 0 0 0 0 0 0 0 0 0 0 0 0 0 0 0 0 0 0 0 0 0 0 0 0 0 0 0 0 0 0 0 0 0 0 0 0
0 0 0 0 0 0 0 0 0 0 0 0 0 0 0 0 0 0 0 0 0 0 0 0 0 0 0 0 0 0 0 0 0 0 0 0 0 0 0 0 0 0 0 0
0 0 0 0 0 0 0 0 0 0 0 0 0 0 0 0 0 0 0 0 0 0 0 0 0 0 0 0 0 0 0 0 0 0 0 0 0 0 0 0 0 0 0 0
0 0 0 0 0 0 0 0 0 0 0 0 0 0 0 0 0 0 0 0 0 0 0 0 0 0 0 0 0 0 0 0 0 0 0 0 0 0 0 0 0 0 0 0
0 0 0 0 0 0 0 0 0 0 0 0 0 0 0 0 0 0 0 0 0 0 0 0 0 0 0 0 0 0 0 0 0 0 0 0 0 0 0 0 0 0 0 0
0 0 0 0 0 0 0 0 0 0 0 0 0 0 0 0 0 0 0 0 0 0 0 0 0 0 0 0 0 0 0 0 0 0 0 0 0 0 0 0 0 0 0 0
0 0 0 0 0 0 0 0 0 0 0 0 0 0 0 0 0 0 0 0 0 0 0 0 0 0 0 0 0 0 0 0 0 0 0 0 0 0 0 0 0 0 0 0
0 0 0 0 0 0 0 0 0 0 0 0 0 0 0 0 0 0 0 0 0 0 0 0 0 0 0 0 0 0 0 0 0 0 0 0 0 0 0 0 0 0 0 0
0 0 0 0 0 0 0 0 0 0 0 0 0 0 0 0 0 0 0 0 0 0 0 0 0 0 0 0 0 0 0 0 0 0 0 0 0 0 0 0 0 0 0 0
0 0 0 0 0 0 0 0 0 0 0 0 0 0 0 0 0 0 0 0 0 0 0 0 0 0 0 0 0 0 0 0 0 0 0 0 0 0 0 0 0 0 0 0
0 0 0 0 0 0 0 0 0 0 0 0 0 0 0 0 0 0 0 0 0 0 0 0 0 0 0 0 0 0 0 0 0 0 0 0 0 0 0 0 0 0 0 0
0 0 0 0 0 0 0 0 0 0 0 0 0 0 0 0 0 0 0 0 0 0 0 0 0 0 0 0 0 0 0 0 0 0 0 0 0 0 0 0 0 0 0 0
0 0 0 0 0 0 0 0 0 0 0 0 0 0 0 0 0 0 0 0 0 0 0 0 0 0 0 0 0 0 0 0 0 0 0 0 0 0 0 0 0 0 0 0
0 0 0 0 0 0 0 0 0 0 0 0 0 0 0 0 0 0 0 0 0 0 0 0 0 0 0 0 0 0 0 0 0 0 0 0 0 0 0 0 0 0 0 0
0 0 0 0 0 0 0 0 0 0 0 0 0 0 0 0 0 0 0 0 0 0 0 0 0 0 0 0 0 0 0 0 0 0 0 0 0 0 0 0 0 0 0 0
0 0 0 0 0 0 0 0 0 0 0 0 0 0 0 0 0 0 0 0 0 0 0 0 0 0 0 0 0 0 0 0 0 0 0 0 0 0 0 0 0 0 0 0
0 0 0 0 0 0 0 0 0 0 0 0 0 0 0 0 0 0 0 0 0 0 0 0 0 0 0 0 0 0 0 0 0 0 0 0 0 0 0 0 0 0 0 0
Wind_Speed
1 2 6 8 8 9 10 10 6 7 6 4 5 6 5 4 6 8 9 9 10 11 12 11 11 10 10 10 10 9 8 7 5 3 4 4 4 4 4 4 5 5 5 5
5 4 6 5 5 8 9 9 5 6 5 1 3 5 5 4 6 7 9 10 11 11 12 11 11 11 11 11 10 9 9 8 7 5 4 4 5 5 5 3 4 5 5 6
6 7 4 5 5 9 9 6 8 4 1 3 4 5 7 5 6 7 8 9 10 11 12 12 12 11 11 11 11 10 9 9 8 8 5 5 4 4 4 4 4 4 5 5
5 4 4 5 5 8 7 7 5 5 5 5 6 2 7 4 6 8 8 9 9 9 10 10 10 11 11 11 10 11 10 10 9 8 6 7 5 5 5 4 4 5 4 4
6 5 6 6 6 6 6 5 6 6 7 7 6 3 6 3 6 8 8 9 8 9 9 9 10 9 9 10 9 8 9 9 9 9 8 6 6 5 5 5 5 4 3 3
7 3 5 6 3 2 5 7 7 7 7 6 2 2 6 4 7 8 8 8 8 8 8 8 8 8 7 8 7 8 8 8 8 8 8 8 8 8 7 6 5 3 2 2
7 6 4 3 6 5 5 7 5 5 5 1 4 2 6 6 6 6 7 7 7 7 7 7 7 7 7 7 7 8 8 8 8 8 8 8 8 8 7 6 5 4 3 2
7 7 5 5 6 6 5 5 6 6 3 4 4 3 6 5 3 4 4 5 6 6 5 6 6 6 5 6 6 6 7 7 7 8 7 7 8 6 5 6 5 4 3 3
5 8 5 3 3 5 7 5 5 6 9 3 6 7 7 4 3 3 4 5 6 5 5 5 5 5 5 5 5 5 6 6 7 7 7 7 7 7 7 7 6 4 4 4
6 6 5 2 6 4 2 5 6 5 6 5 3 4 4 4 2 3 4 5 5 5 5 5 4 4 4 4 3 4 5 6 6 6 6 6 6 7 6 6 8 7 6 5
7 2 7 5 2 5 5 2 4 5 2 4 3 3 5 4 3 2 3 3 4 4 5 4 3 4 4 4 4 4 5 5 6 6 6 6 6 6 6 6 6 6 6 6
3 6 4 6 5 1 2 5 6 5 5 2 2 4 6 4 2 1 2 3 4 3 3 3 3 3 4 4 4 4 5 5 4 5 5 5 5 6 7 8 8 7 7 7
5 6 1 6 5 5 3 2 4 6 6 3 2 5 5 4 3 1 1 2 2 3 3 3 3 2 2 3 4 4 5 5 4 5 5 6 6 6 7 7 8 8 7 7
5 5 4 6 5 2 1 1 2 5 5 4 2 5 6 5 4 2 1 1 2 3 3 3 2 2 2 2 3 4 4 4 4 4 5 6 6 6 6 7 7 8 8 7
6 5 2 2 1 2 3 3 4 6 6 6 5 2 2 5 4 3 3 1 2 2 3 4 3 3 2 2 3 3 3 3 4 4 5 6 6 6 6 6 7 7 8 9
5 5 3 5 5 5 8 8 7 7 7 6 4 3 3 5 5 4 3 1 2 2 4 5 4 4 3 2 3 3 3 3 4 5 5 5 5 6 6 6 6 6 7 7
4 5 5 4 6 6 8 7 9 8 6 6 6 2 7 6 6 4 2 1 1 2 3 4 4 4 3 3 3 3 2 3 4 5 5 5 5 5 6 7 7 6 6 6
4 4 4 7 5 6 5 4 2 5 7 7 5 2 6 6 4 3 3 2 1 1 2 3 4 3 3 4 3 2 3 4 5 5 4 4 5 5 5 5 5 6 5 5
6 4 4 4 6 5 6 4 3 4 6 9 9 7 7 6 6 7 7 4 1 1 2 2 3 4 4 5 4 3 3 5 5 4 4 5 5 5 5 5 5 4 4 4
4 5 4 5 5 4 7 8 5 2 6 8 11 10 9 9 6 6 9 7 4 2 2 2 3 4 4 4 3 3 4 5 5 4 5 5 4 4 5 5 4 4 3 4
5 5 6 6 6 2 8 8 6 3 4 3 8 10 11 10 5 5 9 7 5 3 2 1 2 2 3 3 3 3 5 5 5 4 4 4 4 3 3 4 4 4 4 4
5 4 5 4 5 1 9 7 5 3 2 1 5 8 10 8 6 7 7 6 5 5 3 1 2 1 0 1 3 3 4 4 3 3 2 2 3 3 3 2 3 3 4 4
4 3 2 2 2 5 7 7 5 3 4 2 5 6 9 8 8 8 7 6 5 4 4 3 1 2 2 1 2 2 3 2 2 2 1 0 1 1 2 3 4 4 4 4
4 2 2 4 4 4 10 10 7 5 5 4 3 7 9 9 8 8 7 6 6 5 4 4 3 4 2 2 1 0 1 1 3 3 2 1 0 2 2 2 3 3 4 4
3 2 3 6 7 5 5 8 8 7 6 6 4 6 8 9 9 9 7 7 6 5 5 4 4 2 1 2 2 2 1 2 3 4 4 3 2 1 1 2 2 2 3 2
8 7 7 5 4 4 4 2 5 7 8 8 6 7 8 9 9 9 8 7 6 6 6 5 5 4 4 3 3 3 2 3 4 2 1 2 2 2 1 2 2 1 1 3
Wind_Direction
258 324 35 20 1 325 314 308 314 102 104 84 107 120 103 57 37 16 10 10 14 7 2 9 358 353 347 346 346 337 334 338 335 331 316 312 305 296 279 258 249 237 226 228
207 82 42 350 322 301 295 297 307 106 94 45 152 143 124 88 54 36 17 11 12 3 356 1 359 358 352 350 345 337 345 338 335 330 316 303 299 292 283 276 271 255 232 217
51 58 10 318 331 337 316 345 346 350 102 224 212 180 145 123 72 46 30 18 12 3 360 0 359 357 357 356 349 347 347 342 341 335 326 319 309 301 299 296 279 264 251 228
81 56 334 314 13 351 336 35 341 303 271 229 205 215 132 122 64 37 27 18 11 10 4 1 359 359 1 359 355 353 354 353 348 342 338 330 318 308 300 298 288 283 267 245
96 41 354 356 24 342 342 338 291 270 259 268 230 240 120 89 30 22 20 16 15 14 6 4 3 360 2 0 357 356 355 356 351 347 342 336 327 311 303 305 299 294 287 268
93 90 34 359 320 268 290 265 243 239 249 249 230 288 106 56 20 11 14 15 14 12 8 6 3 3 6 4 0 360 359 358 354 353 352 350 344 335 333 330 322 315 311 303
161 137 110 349 305 202 256 288 266 216 216 139 71 61 79 60 31 18 10 13 14 13 9 4 3 0 358 1 1 358 359 357 356 357 357 354 351 344 341 338 333 339 339 329
201 132 78 35 1 329 309 298 318 317 331 137 151 91 97 83 61 36 25 22 20 17 9 5 2 355 354 2 1 357 356 358 358 356 357 359 358 353 348 348 350 357 346 337
341 98 107 63 354 324 319 340 344 300 291 276 123 117 134 144 104 54 32 27 23 8 8 4 0 356 358 3 2 354 357 1 359 357 357 0 359 3 2 3 1 0 358 354
325 106 114 139 229 196 322 325 305 293 336 325 126 121 121 130 71 40 29 29 21 4 4 1 356 357 357 359 360 0 6 10 5 2 7 10 4 4 6 6 6 2 2 1
303 222 148 191 34 9 333 300 318 293 284 327 348 75 81 89 68 28 20 24 17 5 353 353 356 358 6 3 11 16 11 18 7 4 4 11 7 5 9 11 5 4 6 10
330 302 145 113 90 41 335 351 333 327 350 323 281 106 104 112 106 45 16 15 13 354 342 357 6 6 17 9 12 28 17 18 14 4 2 10 16 16 18 13 9 12 15 18
346 292 207 150 160 195 205 50 321 303 283 284 335 113 134 136 147 126 30 3 349 336 350 15 7 14 23 16 19 30 24 12 19 16 12 12 22 20 21 16 12 15 16 21
315 277 350 12 37 65 160 172 269 291 298 326 51 121 162 167 176 167 163 305 326 337 357 15 10 33 28 43 44 35 23 10 21 26 20 16 24 21 20 17 15 18 18 22
267 288 59 69 56 307 280 256 241 262 297 321 19 25 148 153 164 177 195 240 304 344 7 13 17 30 4 57 69 57 28 16 24 33 30 20 26 22 18 22 22 22 21 25
257 295 266 231 199 248 263 248 234 246 261 274 285 267 131 128 154 192 209 223 302 360 15 9 12 27 357 45 67 65 38 29 38 43 37 27 31 24 19 22 21 23 30 24
234 275 299 291 159 255 258 231 214 222 227 239 253 221 141 166 191 203 210 223 285 10 16 9 5 16 345 42 66 79 53 49 49 49 44 33 35 31 26 23 18 19 30 26
296 289 286 286 259 272 87 74 154 222 233 225 236 162 159 185 177 186 213 228 250 42 26 14 358 351 7 41 38 89 102 73 59 46 49 48 41 31 25 24 23 20 19 21
309 312 292 291 308 286 138 137 160 221 256 224 212 195 176 177 178 206 201 199 199 69 37 16 352 350 27 34 13 19 76 80 67 44 40 50 45 32 21 19 19 20 12 11
249 276 277 295 295 320 104 122 135 225 266 210 192 187 175 178 214 215 171 168 172 134 63 11 338 4 26 18 356 360 64 76 70 51 41 45 49 41 28 12 9 11 14 7
194 214 233 263 277 327 114 129 152 224 6 112 175 178 177 192 214 129 141 152 152 140 132 294 310 36 29 356 345 23 57 67 73 63 45 37 34 51 57 13 5 15 6 359
225 221 214 230 255 135 138 157 204 266 25 176 181 179 179 188 168 134 145 149 160 166 168 212 301 13 55 358 351 41 77 82 94 91 63 52 46 29 40 17 8 16 2 5
226 287 333 306 8 125 183 206 234 284 297 258 181 178 177 183 175 161 164 167 176 185 174 180 222 278 261 115 45 19 92 111 134 135 116 42 104 104 46 17 17 18 15 10
192 175 276 288 277 213 199 215 237 241 258 276 193 177 180 186 182 171 175 178 181 194 186 178 210 234 230 124 134 34 108 192 204 180 182 229 308 75 77 55 30 35 24 12
347 143 237 261 271 262 204 200 219 226 227 243 223 189 185 186 188 181 185 188 186 189 182 184 217 228 244 203 185 165 189 260 245 208 190 197 145 102 66 101 67 57 82 75
264 238 224 253 327 351 7 144 202 222 220 226 223 203 190 188 193 190 192 190 187 188 187 190 197 201 240 235 192 164 170 258 276 268 177 150 153 155 181 161 139 60 108 148